CAPE
0 0 0 0 0 0 0 0 0 0 285 634 724 810 953 675 647 667 265 0 0 0 466 671 582 682 547 441 268 37 3 3 5
0 0 0 0 0 0 0 0 0 0 0 21 381 639 704 604 542 682 750 125 0 0 43 232 582 691 674 523 339 119 6 7 6
0 0 0 0 0 0 0 0 0 0 0 0 0 0 48 516 672 530 847 722 14 17 186 334 285 408 483 400 253 106 11 9 10
0 0 0 0 0 0 0 0 0 0 0 0 0 0 0 24 658 636 793 815 588 259 66 372 446 544 734 653 306 122 23 18 18
0 0 0 0 0 0 0 0 0 0 0 0 0 0 0 0 40 542 775 986 939 969 629 131 207 664 1050 1050 806 452 294 28 49
0 0 0 0 0 0 0 0 0 0 0 0 0 0 0 0 0 0 494 752 878 1024 973 839 568 1091 1092 984 817 763 414 15 98
0 0 0 0 0 0 0 0 0 0 0 0 0 0 0 0 0 0 3 150 691 924 1075 1232 1035 1048 1291 1170 856 836 682 242 65
0 0 0 0 0 0 0 0 0 0 0 0 0 0 0 0 0 0 0 0 0 30 747 1064 928 1001 1257 1384 1123 997 702 628 284
0 0 0 0 0 0 0 0 0 0 0 0 0 0 0 0 0 0 0 0 0 0 0 28 623 850 943 1164 1327 1140 929 686 273
0 0 0 0 0 0 0 0 0 0 0 0 0 0 0 0 0 0 0 0 0 0 0 0 4 489 1027 1083 1250 1323 1177 899 567
0 0 0 0 0 0 0 0 0 0 0 1 0 0 0 0 0 0 0 0 0 0 0 0 0 332 709 1051 1236 1211 1348 1191 782
0 0 0 0 0 0 0 0 0 0 0 0 0 0 0 0 0 0 0 0 0 0 0 0 1 262 518 714 1014 1281 1254 1263 1025
0 0 0 0 0 0 0 0 0 0 0 0 0 0 0 0 0 0 0 0 0 1 11 48 194 254 244 318 317 637 1070 1020 1054
0 0 0 0 0 0 0 0 0 0 0 0 0 0 0 0 0 3 7 14 14 6 20 230 386 369 239 237 475 370 601 841 950
0 0 0 0 0 0 0 0 0 1 6 0 0 0 0 0 2 14 30 24 43 63 104 275 414 615 691 494 486 410 7 291 499
0 0 0 0 0 0 0 0 0 0 2 6 0 0 0 0 0 32 58 95 87 277 514 734 741 965 681 544 578 311 53 167 301
0 0 0 0 0 0 0 0 0 0 1 7 14 7 0 0 2 29 46 25 56 8 70 135 321 683 509 359 159 173 368 149 252
0 0 0 0 0 0 0 0 1 2 0 2 18 10 9 6 3 15 58 24 24 16 7 2 2 16 97 135 124 39 47 100 244
0 0 0 0 0 0 1 0 0 2 2 4 6 8 23 22 10 0 13 48 19 4 5 4 1 0 0 0 0 1 157 197 259
0 0 0 0 0 0 1 0 0 0 0 5 3 1 8 12 19 12 2 2 30 13 3 0 0 0 0 0 0 0 13 130 222
CIN
-0 -0 -0 -0 -0 -0 -0 -0 -0 -0 -1 -0 -0 -0 -0 -4 -0 -0 -6 -0 -0 -1 -0 -0 -0 -0 -0 -0 -9 -88 -0 -0 -0
-0 -0 -0 -0 -0 -0 -0 -0 -0 -0 -0 -61 -13 -0 -0 -0 -0 -0 -0 -43 -0 -0 -70 -4 -0 -0 -0 -0 -0 -51 -0 -0 -0
-0 -0 -0 -0 -0 -0 -0 -0 -0 -0 -0 -0 -0 -0 -119 -0 -0 -0 -0 -1 -83 -113 -13 -0 -2 -0 -0 -0 -6 -38 -0 -0 -0
-0 -0 -0 -0 -0 -0 -0 -0 -0 -0 -0 -0 -0 -0 -0 -25 -0 -0 -0 -5 -2 -23 -95 -0 -0 -0 -0 -0 -3 -39 -125 -0 -0
-0 -0 -0 -0 -0 -0 -0 -0 -0 -0 -0 -0 -0 -0 -0 -0 -263 -11 -0 -5 -0 -0 -0 -51 -10 -0 -0 -0 -0 -0 -0 -25 -55
-0 -0 -0 -0 -0 -0 -0 -0 -0 -0 -0 -0 -0 -0 -0 -0 -0 -0 -71 -2 -0 -0 -0 -0 -0 -0 -0 -0 -0 -0 -0 -0 -41
-0 -0 -0 -0 -0 -0 -0 -0 -0 -0 -0 -0 -0 -0 -0 -0 -0 -0 -157 -262 -16 -0 -0 -0 -0 -0 -0 -0 -0 -0 -0 -2 -34
-0 -0 -0 -0 -0 -0 -0 -0 -0 -0 -0 -0 -0 -0 -0 -0 -0 -0 -0 -0 -0 -18 -2 -0 -0 -0 -0 -0 -0 -0 -0 -0 -0
-0 -0 -0 -0 -0 -0 -0 -0 -0 -0 -0 -0 -0 -0 -0 -0 -0 -0 -0 -0 -0 -0 -0 -5 -0 -0 -0 -0 -0 -0 -0 -0 -6
-0 -0 -0 -0 -0 -0 -0 -0 -0 -0 -0 -0 -0 -0 -0 -0 -0 -0 -0 -0 -0 -0 -0 -0 -0 -0 -0 -0 -0 -0 -0 -1 -0
-0 -0 -0 -0 -0 -0 -0 -0 -0 -0 -0 -0 -0 -0 -0 -0 -0 -0 -0 -0 -0 -0 -0 -0 -0 -0 -0 -0 -0 -0 -0 -0 -0
-0 -0 -0 -0 -0 -0 -0 -0 -0 -0 -0 -0 -0 -0 -0 -0 -0 -0 -0 -0 -0 -0 -0 -0 -0 -0 -0 -0 -0 -0 -0 -0 -0
-0 -0 -0 -0 -0 -0 -0 -0 -0 -0 -0 -0 -0 -0 -0 -0 -0 -0 -0 -0 -0 -1 -1 -1 -0 -0 -0 -0 -0 -0 -0 -0 -0
-0 -0 -0 -0 -0 -0 -0 -0 -0 -0 -0 -0 -0 -0 -0 -0 -0 -0 -0 -0 -0 -0 -1 -8 -13 -16 -17 -9 -1 -0 -0 -0 -0
-0 -0 -0 -0 -0 -0 -0 -0 -0 -0 -0 -0 -0 -0 -0 -0 -0 -0 -0 -0 -0 -0 -0 -0 -0 -32 -21 -29 -11 -25 -12 -0 -9
-0 -0 -0 -0 -0 -0 -0 -0 -0 -0 -0 -0 -0 -0 -0 -0 -0 -0 -0 -0 -0 -0 -0 -0 -0 -0 -6 -38 -65 -0 -1 -5 -0
-0 -0 -0 -0 -0 -0 -0 -0 -0 -0 -0 -0 -0 -0 -0 -0 -0 -0 -0 -0 -0 -32 -35 -59 -27 -0 -5 -83 -194 -31 -0 -0 -0
-0 -0 -0 -0 -0 -0 -0 -0 -0 -0 -0 -0 -0 -0 -0 -0 -0 -0 -0 -1 -2 -15 -0 -0 -0 -40 -95 -65 -102 -32 -52 -29 -0
-0 -0 -0 -0 -0 -0 -0 -0 -0 -0 -0 -0 -0 -0 -0 -0 -0 -1 -0 -0 -0 -0 -0 -0 -0 -0 -0 -0 -0 -12 -40 -21 -6
-0 -0 -0 -0 -0 -0 -0 -0 -0 -0 -0 -0 -0 -0 -0 -0 -0 -0 -0 -6 -0 -0 -0 -0 -0 -0 -0 -0 -0 -0 -3 -45 -11
Wind_Speed
10 10 10 10 10 10 11 11 10 9 10 9 11 12 10 9 13 12 9 9 7 11 13 12 10 11 10 11 11 10 10 10 9
9 10 10 10 10 10 10 11 11 11 11 11 11 11 10 11 12 10 12 10 13 13 14 14 14 13 12 12 12 12 13 11 12
10 10 10 10 10 10 10 10 10 10 10 10 10 11 10 10 13 13 10 11 13 16 17 16 16 17 16 15 15 15 14 14 13
10 9 10 10 10 10 10 10 11 11 11 10 10 10 10 10 10 12 9 12 15 18 19 19 19 19 19 17 17 16 16 16 16
8 8 10 10 10 11 10 10 11 11 12 11 11 11 14 13 11 8 10 9 15 19 21 22 22 21 21 18 18 17 18 16 16
6 6 8 9 10 10 10 10 11 11 12 8 9 11 8 10 8 8 8 12 17 21 23 23 22 22 21 20 19 19 18 19 17
6 2 5 6 8 8 10 9 10 9 6 5 6 5 8 8 9 8 7 12 19 22 25 23 24 23 22 22 22 21 20 20 19
4 4 4 6 5 5 7 6 5 8 6 6 7 7 8 6 7 10 10 16 19 22 24 25 26 26 24 23 24 23 22 20 19
5 4 5 6 6 7 6 5 7 7 8 9 9 9 8 6 6 9 9 16 21 22 23 26 24 28 28 26 25 24 24 23 22
5 5 5 5 6 6 7 7 7 8 9 9 9 10 11 11 7 7 9 13 19 21 23 25 26 25 28 30 27 26 26 25 23
5 5 5 5 6 7 7 7 7 7 7 9 10 10 10 10 11 9 11 12 18 21 22 24 25 26 26 28 30 28 28 27 26
6 5 5 5 6 7 6 6 6 6 6 9 9 9 9 9 10 10 10 12 12 17 21 22 24 24 23 26 27 31 29 29 26
6 5 5 6 6 6 6 7 7 7 8 9 9 8 7 8 10 10 10 10 10 9 15 18 18 18 19 23 22 25 28 30 27
6 5 5 7 6 6 6 7 8 8 8 10 9 8 6 6 8 12 12 11 10 9 11 10 12 14 18 19 18 21 26 30 28
5 5 5 6 6 6 6 8 8 8 8 10 9 7 5 5 7 11 10 10 10 9 10 9 8 10 13 12 16 18 20 11 23
6 5 5 5 5 6 7 7 9 7 8 6 8 6 4 5 7 8 10 12 9 8 8 7 6 6 9 9 10 9 6 15 21
6 6 6 6 6 6 6 6 6 6 6 6 5 6 3 7 5 6 6 9 8 8 8 8 9 2 6 9 13 17 12 9 17
7 7 6 6 5 6 6 5 6 5 6 7 3 3 4 10 5 8 7 7 6 7 8 8 8 9 8 6 11 4 8 8 12
6 6 7 7 5 7 5 4 4 5 6 5 3 5 6 3 5 6 6 6 6 8 7 7 7 8 6 9 10 13 13 8 12
6 6 6 7 5 7 7 6 5 4 5 5 5 7 6 3 4 7 8 7 5 4 5 5 5 7 6 6 7 13 13 11 10
Wind_Direction
355 359 358 358 355 352 352 350 342 333 330 317 274 266 266 254 247 257 238 239 242 223 233 230 231 213 215 206 201 198 195 190 204
357 357 352 350 350 347 348 349 351 346 342 336 337 314 291 269 260 247 249 232 234 229 228 234 231 231 225 215 213 207 210 202 206
9 5 357 352 345 340 339 333 335 338 338 337 341 341 334 274 259 259 246 240 230 234 235 236 234 232 228 229 223 220 212 215 211
16 11 8 0 353 346 337 330 325 321 322 323 325 328 321 291 270 271 249 238 224 238 240 240 239 239 232 225 222 221 220 211 211
21 358 17 2 358 351 343 338 328 321 311 305 309 317 301 263 266 259 267 255 231 239 241 242 241 243 236 223 218 217 218 216 214
356 25 355 355 357 344 340 337 331 321 281 279 298 297 274 274 273 271 233 264 252 249 247 243 240 242 236 230 219 217 218 216 214
328 325 338 339 347 326 335 324 310 282 320 310 264 291 292 284 276 275 328 289 270 260 255 245 240 237 234 228 223 220 217 210 215
360 349 355 351 359 342 333 327 331 328 323 315 311 308 300 288 284 276 284 280 279 279 276 262 248 241 236 228 221 218 217 213 211
354 358 354 354 351 338 336 331 326 324 321 316 308 303 297 290 289 284 262 271 278 277 277 279 269 250 241 235 223 217 215 213 213
346 350 352 350 342 345 336 330 330 329 330 322 309 301 292 289 288 284 274 265 276 278 275 274 273 263 252 240 230 217 213 213 212
339 336 345 345 347 344 335 331 334 326 312 303 296 298 299 295 292 289 288 266 271 276 277 272 270 267 261 249 236 225 213 210 208
340 338 334 348 338 335 333 321 316 305 313 300 309 307 305 304 302 301 296 292 267 262 277 274 268 264 267 272 253 235 219 208 206
341 333 331 338 324 334 330 329 326 328 325 322 321 318 311 308 304 312 308 304 292 283 265 267 272 275 282 286 268 275 228 210 203
331 329 329 328 324 326 330 329 329 328 329 325 323 317 307 308 323 325 316 313 295 287 280 261 276 278 277 278 271 262 268 211 199
322 318 323 321 320 324 332 330 330 324 340 324 313 313 312 318 322 334 328 322 293 297 283 285 273 253 269 277 273 307 341 232 200
316 311 312 317 315 324 324 328 330 332 343 319 335 309 323 292 328 351 353 342 342 348 349 314 276 290 78 33 32 241 177 308 196
301 301 304 309 310 312 322 331 332 323 346 339 314 335 309 2 336 4 4 346 5 2 13 19 0 20 75 44 31 72 114 165 198
287 286 288 295 299 301 312 321 329 325 326 342 310 324 325 331 348 340 354 19 0 7 13 19 21 39 49 51 53 25 115 208 214
293 285 283 285 288 285 297 300 302 296 310 313 272 270 270 312 311 319 340 3 13 14 2 13 10 23 29 22 25 23 58 218 227
306 297 290 280 277 277 281 287 286 287 289 291 306 304 291 204 283 304 329 333 359 11 6 7 359 2 20 16 22 36 33 50 75